Location: Kiltepe
(36.4752°N, 30.0120°E)
Time: 21:51:34
(UTC+00:00)

Cosmos 2058 Rocket - Pass Details

Date: 03 August 2024
Orbit: 608 x 634 km, 82.5° (Epoch: 18 September)

Event Time Altitude Azimuth Distance (km) Brightness Sun altitude
Rises 19:26:54 0° 344° (NNW) 2,889 7.5 -24.5°
Reaches altitude 10° 19:29:13 10° 337° (NNW) 1,984 6.6 -24.8°
Maximum altitude 19:33:18 39° 268° (W) 926 4.2 -25.3°
Enters shadow 19:34:12 35° 239° (WSW) 1,002 4.1 -25.4°
